Starlink 31546

operational
NORAD ID: 59470 Int'l Des: 2024-068 Owner: SPXS Country: US Constellation: starlink
LEOCIRCULAR

Starlink 31546について

説明を読み込み中...

リアルタイム位置

3D地球を読み込み中...

次回通過

高度履歴

Altitude vs Time

uPlot chart will show altitude changes over time

軌道要素

1 59470U 24068R 26033.96380264 .00008916 00000-0 33316-3 0 9990
2 59470 42.9996 227.0144 0001115 278.0858 81.9867 15.27575308103255
Epoch: Feb 2, 2026 • Age: 12 hours

現在のステータス

高度 487.1 km
速度 7.62 km/s
衛星直下点 -20.44°S, 106.27°W
打ち上げ日 Apr 10, 2024
運用期間 1.8 years
タイプ internet

技術仕様

分類 Payload
質量 730.00 kg
乾燥質量 700.00 kg
総質量 730.00 kg
長さ 0.30 m
直径 4.10 m
スパン 29.00 m
形状 Box + pan
製造者 SPXS
バスタイプ Starlink V2M
フェーズステータス In Orbit
所有者/国 SPXS/US

大規模コンステレーション

Loading constellations...